User: anonymous   Login
Location: Unspecified
(0.0000°N, 0.0000°E)
Time: 06:47:49
(UTC+00:00)
Language:

PLEIADES HR1 - Orbit

View from above orbital plane
View from above orbital plane
View from above satellite
View from above satellite

Ground track
Ground track

The orbit data is extracted from the following two-line orbital elements,

1 38012U 11076F   17147.48825579 +.00000028 +00000-0 +15763-4 0  9993
2 38012 098.1987 222.9387 0001334 076.7864 283.3487 14.58556086289844
Epoch (UTC): 27 May 2017 11:43:05
Eccentricity: 0.0001334
inclination: 98.1987°
perigee height: 697 km
apogee height: 699 km
right ascension of ascending node: 222.9387°
argument of perigee: 76.7864°
revolutions per day: 14.58556086
mean anomaly at epoch: 283.3487°
orbit number at epoch: 28984

The dashed part of the orbit path shows where the satellite is in the earth's shadow,  

DLR